Location: Nianha
(10.8000°N, 4.6333°W)
Time: 19:58:14
(UTC+00:00)

Cosmos 2150 Rocket - Pass Details

Date: 14 November 2019
Orbit: 750 x 807 km, 74.0° (Epoch: 22 January)

Event Time Altitude Azimuth Distance (km) Brightness Sun altitude
Rises 05:27:37 0° 191° (S) 3,299 7.4 -11.6°
Reaches altitude 10° 05:30:00 10° 190° (S) 2,374 6.6 -11.1°
Maximum altitude 05:35:25 85° 103° (ESE) 811 4.2 -9.8°
Drops below altitude 10° 05:40:52 10° 14° (NNE) 2,380 6.5 -8.5°
Sets 05:43:16 0° 14° (NNE) 3,308 7.3 -7.9°
